Wind_Speed
59 61 51 44 40 45 42 47 46 39 23 36 33 38 38 36 39 41 36 35 35 36 38 32 32 33 34 35 32 29 26 24 24 27 28 30 30 29 27 26 26 26 27 29
60 54 51 42 43 43 44 46 47 41 29 37 33 37 37 36 42 43 38 37 37 35 35 31 33 34 36 36 35 32 31 28 27 30 31 30 31 31 32 30 29 29 30 32
61 55 52 47 46 48 47 46 43 40 31 39 42 40 41 39 39 44 42 40 40 38 35 27 30 33 34 32 33 34 33 31 34 33 34 34 35 35 34 33 33 33 33 34
62 56 56 52 48 49 49 44 42 41 40 44 39 49 43 45 41 40 40 39 39 38 38 34 30 33 33 32 32 34 34 34 34 33 34 35 37 36 35 36 36 36 36 37
54 54 49 48 44 42 45 45 44 44 43 48 46 54 48 46 45 39 38 41 40 41 42 39 34 35 33 36 35 35 34 34 35 34 34 34 35 37 37 38 38 39 40 40
53 56 53 49 48 47 45 47 48 53 49 54 48 47 47 43 44 42 34 34 41 45 45 45 40 37 34 32 35 37 36 35 38 38 37 37 39 39 39 39 38 39 41 43
53 53 56 52 55 52 50 49 55 59 59 49 43 46 38 36 40 39 37 38 40 44 46 44 44 36 36 36 36 37 41 42 43 39 38 40 40 41 42 42 44 45 46 47
63 55 52 56 56 58 55 55 55 56 53 47 49 43 37 31 36 35 34 36 41 45 44 43 44 41 34 36 36 34 39 42 41 41 41 42 42 43 44 46 48 48 49 51
70 65 56 52 51 58 53 59 48 57 57 57 48 46 47 40 35 37 38 38 45 43 44 45 46 43 38 34 33 38 43 43 44 45 44 42 42 43 44 46 48 51 52 53
66 62 62 58 53 56 53 52 59 59 61 60 54 48 47 44 39 38 39 40 41 41 41 32 32 34 38 39 41 42 41 40 42 43 41 42 42 44 46 50 53 55 58 59
59 56 56 56 58 58 55 59 59 58 60 59 56 46 45 43 42 39 33 38 40 41 34 28 28 32 37 40 45 42 42 41 38 37 38 40 44 49 52 53 54 57 58 57
50 53 53 50 50 52 47 48 52 58 57 58 57 46 49 49 44 40 33 31 35 32 31 31 32 37 38 42 43 43 37 36 39 42 45 46 48 52 53 53 53 51 50 48
66 62 54 53 54 54 50 49 48 50 56 58 61 41 47 49 46 43 33 36 32 34 31 35 38 42 42 43 39 37 39 42 46 47 47 48 50 51 50 48 47 46 48 50
74 62 69 63 52 49 49 42 39 42 54 54 55 52 51 52 48 44 42 37 33 35 36 35 36 36 36 37 39 42 44 48 48 48 48 48 48 47 44 45 47 48 51 53
62 73 71 68 57 55 51 49 44 46 39 53 43 50 50 47 37 39 42 41 41 38 36 35 37 41 42 42 44 47 46 47 45 44 46 44 42 43 45 48 50 55 58 58
79 77 65 66 58 55 65 59 53 53 45 45 49 45 49 47 41 42 46 44 42 41 38 37 43 44 44 41 40 44 44 42 41 41 41 42 44 47 51 54 57 58 58 57
79 75 78 84 74 71 75 69 63 60 49 48 49 37 43 44 43 47 46 47 47 42 39 39 42 42 39 37 37 37 36 35 38 39 41 44 49 52 55 57 57 56 56 59
71 69 72 73 72 87 85 75 71 57 52 47 48 44 43 44 39 40 41 43 42 38 38 33 29 27 26 30 33 33 34 38 41 43 47 51 54 55 57 57 59 60 62 66
67 76 77 81 80 82 78 72 67 77 74 60 45 44 41 47 51 50 54 44 31 33 31 32 30 30 30 31 32 35 39 41 43 47 52 56 56 55 56 57 59 63 66 68
69 66 70 83 85 83 67 48 49 58 61 47 39 38 35 35 42 40 34 37 34 27 23 20 23 27 28 33 39 43 43 44 48 53 54 54 52 54 57 60 63 65 65 67
71 69 67 63 82 74 53 43 54 62 54 43 44 36 24 28 18 16 25 32 36 29 28 28 26 27 31 33 35 39 44 48 52 52 53 53 57 60 61 61 63 64 67 68
89 74 55 74 66 77 61 62 61 51 40 50 47 32 30 31 34 31 27 39 33 28 30 30 28 31 32 31 35 39 43 47 51 54 56 59 63 63 62 63 66 69 70 76
88 74 66 74 77 69 52 50 42 37 41 55 42 34 28 34 35 31 31 36 30 32 34 35 32 33 34 36 39 43 47 50 52 57 61 65 65 61 63 65 69 72 76 79
72 73 68 41 64 75 57 53 48 50 48 49 49 50 33 23 26 28 34 35 34 34 37 36 33 32 36 39 45 48 52 53 57 61 61 58 59 61 65 70 71 72 68 58
76 72 68 62 48 64 58 50 45 39 45 53 52 59 30 28 35 39 40 42 38 38 38 35 33 35 40 44 49 52 54 56 56 55 57 58 60 63 66 67 65 55 45 41
60 58 49 43 29 39 36 34 44 50 49 52 54 53 36 35 45 42 39 37 35 36 37 37 42 44 46 47 48 49 50 52 53 56 57 59 60 61 60 53 44 39 36 37
Wind_Direction
247 255 257 261 264 259 258 262 266 259 254 274 270 252 255 239 238 245 241 240 243 241 247 250 251 255 260 261 261 264 264 265 269 270 273 280 282 283 280 277 277 275 273 273
249 258 258 263 260 260 255 256 262 264 255 269 264 252 255 244 242 244 239 245 247 242 241 241 246 247 252 259 268 271 272 275 275 274 277 281 282 283 284 281 278 275 276 278
248 254 258 255 254 257 254 254 264 268 259 258 266 253 250 249 245 246 248 243 243 246 243 233 241 248 253 260 267 271 273 274 274 278 281 282 280 280 282 283 283 282 280 279
250 244 245 245 246 248 252 250 260 257 260 254 256 258 245 250 248 243 247 249 251 251 253 247 234 243 253 256 259 265 269 270 271 270 272 273 276 278 278 279 278 279 280 280
249 253 251 255 257 251 261 254 260 257 252 259 243 252 247 239 250 241 246 253 253 256 255 253 244 233 243 253 259 260 262 266 269 270 270 272 275 275 274 275 274 275 275 277
247 250 246 248 248 244 247 248 250 259 252 248 248 250 246 244 247 256 254 254 257 260 261 260 254 250 247 252 254 259 262 265 269 268 271 274 273 273 272 271 273 275 277 280
243 243 249 248 248 245 240 238 243 248 245 252 256 255 254 250 249 253 260 257 256 259 262 265 267 255 246 250 251 252 259 266 265 266 270 271 272 274 275 276 277 279 279 278
245 243 243 249 248 243 242 240 247 253 256 261 263 252 250 250 247 243 250 249 253 256 257 257 255 257 248 238 245 256 256 259 265 269 270 271 273 275 277 278 278 278 278 279
248 246 246 247 255 247 244 241 252 252 259 257 250 250 252 248 241 242 246 253 255 259 260 262 262 252 250 256 254 251 257 260 264 268 270 270 271 272 271 272 273 274 277 279
245 247 245 246 244 242 236 243 242 244 244 248 252 249 252 260 260 256 249 251 256 258 255 259 264 259 256 255 253 252 257 259 266 269 269 268 269 272 273 275 278 280 281 282
243 246 248 243 242 240 240 237 234 237 246 248 254 252 254 258 264 262 254 246 248 257 250 243 243 244 245 250 251 253 258 263 261 260 264 269 272 275 277 278 279 280 281 282
232 245 244 244 238 236 234 236 241 243 245 250 257 256 262 259 257 264 265 259 256 253 243 242 248 242 242 251 254 260 262 261 262 268 272 274 275 276 277 277 278 279 279 280
240 240 236 225 236 235 232 231 236 240 242 243 248 249 250 258 259 263 259 252 253 252 236 237 243 246 248 250 256 259 262 265 268 271 272 274 276 277 276 278 279 279 282 283
237 241 237 236 239 245 239 237 239 245 246 250 248 253 253 250 255 266 261 260 252 246 245 243 243 247 252 256 259 263 267 271 272 275 277 275 274 274 278 275 275 277 279 283
228 234 238 236 231 235 243 243 248 257 252 253 254 256 255 257 262 258 256 256 248 247 246 242 243 246 245 247 252 264 268 270 272 272 274 276 280 280 279 282 283 284 285 283
234 235 229 220 227 241 241 239 249 253 252 254 251 251 250 250 249 248 249 256 257 252 249 242 241 249 260 265 264 267 266 268 274 276 280 282 284 287 289 288 290 290 287 286
240 234 238 237 233 243 245 244 247 251 257 257 254 260 256 251 251 250 252 252 252 247 246 251 259 264 265 260 258 261 266 272 276 283 287 291 290 290 292 292 290 290 290 290
214 230 242 245 242 239 244 242 250 251 251 251 249 246 246 247 244 246 241 239 238 249 259 258 254 253 255 256 262 269 276 279 282 287 289 286 287 290 293 294 291 290 290 290
228 215 230 227 233 237 242 243 238 245 253 246 256 247 243 241 241 245 244 235 245 250 247 246 246 249 255 257 261 270 273 279 284 286 288 290 293 295 294 293 291 290 290 292
212 226 216 222 227 234 235 240 250 245 244 239 242 223 223 229 239 249 248 246 241 232 234 255 261 259 263 267 265 266 271 278 285 288 293 293 294 295 294 292 290 290 292 293
216 218 226 214 223 235 226 249 240 237 237 244 227 221 228 232 220 229 238 240 233 232 248 256 273 266 270 276 280 283 282 282 288 291 291 294 294 294 293 291 291 292 293 297
218 231 229 235 229 220 235 252 237 247 238 220 218 231 229 229 238 252 253 251 234 243 250 263 270 271 273 278 283 284 288 290 294 291 293 292 293 292 292 292 292 295 297 296
228 228 240 245 235 245 227 232 242 235 229 217 226 226 223 238 244 250 257 233 244 248 260 270 274 272 276 284 291 295 298 299 297 292 291 291 292 292 291 292 295 296 297 299
227 226 228 226 244 234 230 234 236 235 226 240 251 257 252 239 235 241 244 236 240 264 267 265 267 273 280 285 291 297 299 296 293 290 289 288 289 290 292 294 296 299 301 302
220 214 222 228 235 209 219 236 250 241 234 239 244 251 248 237 232 229 234 242 252 255 258 263 271 278 282 286 291 293 294 293 287 285 286 289 288 291 294 297 300 301 300 302
217 220 233 220 227 234 232 244 246 245 243 243 250 244 241 246 236 234 239 249 250 253 258 267 276 280 286 289 290 292 290 285 284 282 284 289 292 294 297 298 296 297 301 306
Height
5734 5735 5733 5746 5753 5756 5759 5756 5757 5762 5770 5760 5761 5762 5765 5773 5768 5771 5777 5778 5780 5784 5787 5790 5792 5792 5791 5792 5796 5800 5803 5805 5805 5804 5804 5804 5804 5805 5806 5807 5808 5807 5807 5806
5723 5718 5728 5740 5742 5743 5745 5746 5746 5754 5760 5756 5754 5751 5754 5764 5762 5763 5769 5768 5771 5776 5781 5785 5786 5787 5787 5786 5788 5791 5794 5797 5798 5797 5797 5798 5798 5797 5797 5798 5798 5799 5799 5798
5707 5715 5723 5726 5730 5731 5733 5735 5743 5745 5752 5749 5744 5741 5744 5750 5756 5755 5759 5760 5761 5766 5773 5779 5780 5779 5781 5783 5783 5784 5787 5788 5788 5789 5789 5789 5789 5789 5790 5789 5789 5789 5790 5790
5693 5702 5705 5710 5713 5722 5721 5732 5735 5737 5736 5734 5744 5725 5735 5737 5741 5748 5752 5751 5753 5757 5762 5768 5774 5774 5773 5775 5778 5778 5778 5778 5779 5781 5781 5781 5780 5781 5781 5780 5780 5780 5780 5780
5685 5689 5698 5700 5707 5716 5715 5724 5726 5725 5724 5723 5725 5719 5720 5729 5729 5738 5744 5743 5745 5748 5752 5758 5763 5769 5767 5769 5771 5771 5772 5771 5771 5773 5773 5773 5773 5772 5772 5772 5772 5772 5771 5770
5675 5675 5681 5687 5694 5700 5710 5712 5713 5712 5713 5703 5710 5718 5713 5720 5724 5727 5736 5739 5736 5738 5742 5744 5751 5756 5761 5761 5762 5762 5763 5765 5764 5764 5763 5763 5762 5763 5762 5761 5761 5761 5760 5759
5662 5665 5667 5678 5679 5686 5692 5696 5696 5694 5692 5687 5703 5705 5709 5711 5717 5725 5727 5728 5728 5729 5730 5734 5736 5744 5749 5751 5753 5753 5752 5753 5753 5754 5754 5753 5752 5752 5752 5753 5752 5752 5751 5749
5644 5652 5660 5660 5665 5673 5676 5682 5684 5681 5684 5690 5693 5687 5693 5703 5706 5714 5717 5720 5719 5718 5722 5724 5727 5732 5735 5737 5740 5742 5741 5741 5742 5743 5742 5743 5743 5743 5743 5742 5740 5738 5736 5735
5631 5639 5650 5652 5654 5658 5668 5662 5679 5677 5678 5678 5680 5678 5680 5690 5697 5700 5704 5707 5706 5710 5714 5716 5717 5722 5726 5728 5730 5730 5731 5732 5732 5732 5732 5732 5732 5732 5731 5730 5728 5725 5724 5722
5619 5625 5633 5638 5641 5638 5645 5658 5656 5656 5657 5659 5660 5669 5671 5676 5685 5690 5692 5694 5697 5700 5702 5705 5707 5712 5715 5717 5719 5719 5721 5721 5721 5721 5721 5721 5721 5720 5718 5716 5715 5713 5710 5709
5613 5608 5619 5620 5619 5628 5630 5632 5636 5643 5644 5647 5650 5654 5660 5667 5669 5675 5681 5682 5685 5689 5691 5694 5697 5701 5704 5706 5707 5709 5710 5711 5711 5712 5712 5712 5711 5710 5707 5705 5703 5700 5697 5695
5597 5596 5599 5608 5610 5612 5616 5620 5627 5629 5636 5637 5642 5644 5648 5653 5657 5665 5670 5674 5676 5679 5681 5684 5687 5691 5694 5695 5695 5697 5699 5700 5701 5701 5701 5699 5698 5696 5694 5692 5690 5687 5684 5680
5580 5575 5584 5590 5595 5596 5603 5608 5614 5619 5623 5626 5628 5634 5641 5642 5645 5652 5661 5662 5664 5667 5670 5674 5677 5681 5684 5685 5686 5687 5687 5688 5688 5687 5687 5686 5685 5682 5681 5680 5677 5675 5672 5670
5560 5561 5566 5574 5589 5597 5591 5599 5603 5606 5609 5619 5618 5625 5627 5632 5633 5644 5649 5653 5654 5657 5660 5662 5665 5669 5673 5674 5676 5678 5679 5678 5676 5676 5675 5672 5671 5670 5669 5667 5665 5662 5660 5656
5534 5540 5550 5565 5574 5576 5580 5584 5588 5590 5601 5600 5615 5614 5620 5623 5630 5635 5638 5640 5643 5646 5649 5654 5658 5659 5661 5663 5666 5667 5666 5665 5666 5664 5662 5661 5660 5659 5656 5655 5653 5650 5645 5641
5519 5520 5533 5542 5555 5557 5561 5569 5574 5581 5588 5591 5594 5601 5608 5608 5615 5623 5627 5631 5635 5639 5641 5644 5646 5649 5652 5654 5654 5653 5652 5651 5651 5649 5650 5649 5647 5645 5642 5640 5637 5634 5630 5625
5501 5509 5512 5519 5539 5540 5532 5550 5563 5573 5575 5583 5580 5600 5598 5599 5605 5613 5619 5622 5624 5625 5628 5632 5636 5638 5639 5640 5639 5638 5638 5638 5637 5636 5636 5635 5633 5629 5628 5625 5621 5616 5612 5608
5479 5493 5498 5503 5519 5500 5512 5548 5553 5559 5567 5568 5573 5577 5581 5586 5591 5600 5605 5606 5611 5616 5619 5622 5624 5627 5627 5628 5628 5627 5626 5625 5625 5624 5623 5622 5618 5615 5611 5608 5604 5600 5596 5592
5464 5472 5481 5483 5486 5490 5502 5526 5536 5541 5553 5560 5564 5565 5569 5574 5578 5585 5589 5594 5601 5605 5607 5611 5613 5614 5615 5616 5615 5615 5614 5613 5611 5610 5609 5606 5601 5598 5595 5590 5587 5584 5579 5575
5452 5462 5461 5462 5470 5474 5500 5525 5531 5530 5527 5546 5554 5552 5554 5560 5566 5578 5583 5587 5590 5594 5598 5601 5603 5604 5604 5605 5605 5604 5603 5601 5598 5595 5592 5588 5586 5583 5581 5577 5573 5568 5564 5558
5435 5440 5445 5449 5455 5465 5496 5504 5507 5501 5527 5540 5541 5543 5543 5549 5563 5569 5571 5575 5580 5583 5586 5589 5590 5590 5591 5591 5591 5591 5591 5590 5586 5579 5578 5576 5573 5569 5565 5561 5555 5550 5545 5539
5415 5423 5430 5436 5441 5453 5482 5485 5489 5509 5522 5524 5527 5530 5532 5542 5549 5554 5560 5564 5568 5571 5574 5576 5577 5578 5579 5578 5579 5579 5579 5575 5571 5563 5562 5561 5558 5553 5548 5542 5538 5532 5527 5521
5399 5411 5422 5432 5445 5460 5470 5477 5489 5496 5510 5515 5515 5514 5523 5531 5536 5543 5547 5553 5556 5560 5563 5564 5565 5565 5565 5566 5566 5566 5563 5560 5555 5550 5548 5544 5542 5536 5531 5527 5522 5516 5510 5503
5391 5408 5415 5424 5431 5445 5459 5464 5475 5487 5494 5498 5501 5502 5508 5516 5522 5527 5532 5538 5542 5545 5549 5550 5551 5551 5552 5552 5553 5551 5549 5546 5543 5537 5533 5530 5527 5522 5517 5513 5506 5499 5491 5486
5385 5393 5404 5407 5420 5432 5444 5453 5463 5471 5480 5486 5491 5494 5497 5502 5509 5514 5519 5525 5528 5532 5535 5536 5536 5537 5539 5540 5539 5539 5537 5534 5530 5525 5519 5514 5512 5509 5503 5495 5489 5483 5478 5474
5371 5384 5393 5405 5413 5423 5438 5444 5448 5456 5464 5473 5480 5484 5487 5493 5500 5503 5507 5511 5514 5518 5520 5522 5524 5524 5526 5527 5526 5524 5521 5519 5515 5512 5507 5501 5495 5491 5486 5480 5475 5471 5468 5464